COSMOS 2251 DEB, 34946

Orbit data source: Space-Track

COSMOS 2251 DEB, 34946 is space debris in LEO originally from a launch on Wed, 16 Jun 1993 UTC launched from the Plesetsk Missile And Space Complex (PKMTR). The debris from Iridium 33, an American commercial communications satellite, has been tracked extensively since its accidental collision with the defunct Russian satellite Cosmos 2251 in 2009. This event, occurring at high speed in low Earth orbit (LEO), generated thousands of pieces of space debris, significantly increasing the risk of further collisions. The Iridium 33 debris cloud has impacted space traffic management and orbital debris mitigation strategies, making it a subject of ongoing study in space situational awareness.

Loading next visibility...
Identifier
34946, 1993-036ADZ
Orbit
LEO
Country
Flag of CISCIS
Related business
Manufacturer
Unknown
Mission
Spacecraft
Bus & Motor
Unknown
Mass
Unknown
Launch date (UTC)
1993-06-16 (33 years ago)
Launch vehicle
Unknown
Launch site
Plesetsk Missile And Space Complex (PKMTR)
Object type
Payload
Rocket body
Debris
Shape & HBR
Unknown shape, 0.1 m
Radar Cross Section
Small (<0.1 m²)

Expand to show TLE details & history
Last TLE update: 1 day ago

TLE from 1 day ago
0 COSMOS 2251 DEB
1 34946U 93036ADZ 26037.23980331  .00003388  00000-0  66356-3 0  9995
2 34946  74.0206 235.7462 0050536 357.4822   2.6082 14.62394490890205
Epoch: 2026-02-06T05:45Z
TLE epoch observation values (Epoch: 2026-02-06T05:45:19.005Z)
Latitude
-0.00005°
Longitude
13.03647°
Altitude
652.43 km
Speed
7.551 km/s
True Right ascension
15h 42m 59s
True Declination
0° 00' 00"
Sunlit
Object was in daylight at epoch
Visualization orbit readout
Latitude
Unknown
Longitude
Unknown
Altitude
Unknown
Speed
Unknown
Apparent Right ascension
Unknown
Apparent Declination
Unknown
Sunlit
N/A
Visualization observer readout
Local Sidereal Time
07:40:58
Azimuth
Unknown
Elevation
Unknown
Doppler factor
Unknown
Orbital elements
Apogee altitude
718.733 km
Perigee altitude
647.365 km
Semi-major axis
7,061.186 km
Eccentricity
0.00505
Inclination
74.0206°
RAAN
235.7462°
Arg. of periapsis
357.4822°
True anomaly
2.63472°
Mean anomaly
2.6082°
Eccentric anomaly
2.62144°
Mean motion
3.65786 °/min
Orbital period
98.42 mins
BSTAR
0.00066356
Loading maneuver chart data...
Computing Atmospheric mass density...

Documentation

Showing up to 5 results
|